Time,TemperatureF,DewpointF,PressureIn,WindDirection,WindDirectionDegrees,WindSpeedMPH,WindSpeedGustMPH,Humidity,HourlyPrecipIn,Conditions,Clouds,dailyrainin,SoftwareType,DateUTC
2013-05-06 00:02:00,38.0,34.0,-100.00,East,95,1.0,5.0,84,0.00,,,-99.99,,2013-05-06 06:02:00,
2013-05-06 00:12:00,39.0,35.0,-100.00,WSW,250,1.0,3.0,85,0.00,,,-99.99,,2013-05-06 06:12:00,
2013-05-06 00:21:00,38.0,34.0,-100.00,SW,225,0.0,2.0,86,0.00,,,-99.99,,2013-05-06 06:21:00,
2013-05-06 00:31:00,38.0,34.0,-100.00,WSW,240,2.0,4.0,86,0.00,,,-99.99,,2013-05-06 06:31:00,
2013-05-06 00:42:00,38.0,34.0,-100.00,SSW,210,8.0,12.0,87,0.00,,,-99.99,,2013-05-06 06:42:00,
2013-05-06 00:52:00,38.0,35.0,-100.00,SW,230,9.0,14.0,85,0.00,,,-99.99,,2013-05-06 06:52:00,
2013-05-06 01:01:00,38.0,34.0,-100.00,SW,225,6.0,15.0,87,0.00,,,-99.99,,2013-05-06 07:01:00,
2013-05-06 01:11:00,37.0,34.0,-100.00,WSW,240,4.0,14.0,87,0.00,,,-99.99,,2013-05-06 07:11:00,
2013-05-06 01:22:00,39.0,34.0,-100.00,WSW,245,5.0,8.0,82,0.00,,,-99.99,,2013-05-06 07:22:00,
2013-05-06 01:31:00,39.0,33.0,-100.00,WSW,240,6.0,7.0,80,0.00,,,-99.99,,2013-05-06 07:31:00,
2013-05-06 01:52:00,37.0,33.0,-100.00,SW,230,9.0,12.0,84,0.00,,,-99.99,,2013-05-06 07:52:00,
2013-05-06 02:02:00,38.0,33.0,-100.00,SSW,200,2.0,11.0,82,0.00,,,-99.99,,2013-05-06 08:02:00,
2013-05-06 02:12:00,38.0,33.0,-100.00,SW,225,7.0,9.0,81,0.00,,,-99.99,,2013-05-06 08:12:00,
2013-05-06 02:22:00,38.0,33.0,-100.00,West,265,4.0,9.0,82,0.00,,,-99.99,,2013-05-06 08:22:00,
2013-05-06 02:31:00,38.0,33.0,-100.00,WSW,240,4.0,7.0,82,0.00,,,-99.99,,2013-05-06 08:31:00,
2013-05-06 02:41:00,37.0,32.0,-100.00,SW,235,6.0,8.0,82,0.00,,,-99.99,,2013-05-06 08:41:00,
2013-05-06 02:52:00,37.0,32.0,-100.00,WSW,245,4.0,9.0,83,0.00,,,-99.99,,2013-05-06 08:52:00,
2013-05-06 03:01:00,37.0,32.0,-100.00,WSW,240,4.0,6.0,82,0.00,,,-99.99,,2013-05-06 09:01:00,
2013-05-06 03:11:00,37.0,32.0,-100.00,WSW,245,5.0,8.0,82,0.00,,,-99.99,,2013-05-06 09:11:00,
2013-05-06 03:22:00,37.0,32.0,-100.00,SW,235,2.0,11.0,82,0.00,,,-99.99,,2013-05-06 09:22:00,
2013-05-06 03:32:00,36.0,32.0,-100.00,West,260,4.0,6.0,85,0.00,,,-99.99,,2013-05-06 09:32:00,
2013-05-06 03:42:00,36.0,32.0,-100.00,West,270,6.0,9.0,84,0.00,,,-99.99,,2013-05-06 09:42:00,
2013-05-06 03:53:00,36.0,32.0,-100.00,SW,235,9.0,10.0,83,0.00,,,-99.99,,2013-05-06 09:53:00,
2013-05-06 04:02:00,36.0,32.0,-100.00,WSW,245,6.0,11.0,84,0.00,,,-99.99,,2013-05-06 10:02:00,
2013-05-06 04:12:00,36.0,32.0,-100.00,SW,230,5.0,11.0,83,0.00,,,-99.99,,2013-05-06 10:12:00,
2013-05-06 04:22:00,36.0,32.0,-100.00,SW,225,6.0,12.0,82,0.00,,,-99.99,,2013-05-06 10:22:00,
2013-05-06 04:33:00,36.0,32.0,-100.00,WSW,245,6.0,12.0,82,0.00,,,-99.99,,2013-05-06 10:33:00,
2013-05-06 04:41:00,36.0,32.0,-100.00,WSW,245,6.0,11.0,83,0.00,,,-99.99,,2013-05-06 10:41:00,
2013-05-06 04:52:00,36.0,32.0,-100.00,WSW,245,4.0,7.0,82,0.00,,,-99.99,,2013-05-06 10:52:00,
2013-05-06 05:02:00,36.0,32.0,-100.00,SW,215,4.0,7.0,83,0.00,,,-99.99,,2013-05-06 11:02:00,
2013-05-06 05:12:00,36.0,32.0,-100.00,WSW,245,4.0,7.0,84,0.00,,,-99.99,,2013-05-06 11:12:00,
2013-05-06 05:22:00,35.0,32.0,-100.00,WSW,240,3.0,5.0,85,0.00,,,-99.99,,2013-05-06 11:22:00,
2013-05-06 05:31:00,36.0,32.0,-100.00,West,270,6.0,9.0,85,0.00,,,-99.99,,2013-05-06 11:31:00,
2013-05-06 05:42:00,35.0,32.0,-100.00,WSW,240,6.0,12.0,85,0.00,,,-99.99,,2013-05-06 11:42:00,
2013-05-06 05:52:00,36.0,32.0,-100.00,SW,230,6.0,10.0,85,0.00,,,-99.99,,2013-05-06 11:52:00,
2013-05-06 06:01:00,35.0,32.0,-100.00,WSW,245,7.0,12.0,85,0.00,,,-99.99,,2013-05-06 12:01:00,
2013-05-06 06:12:00,35.0,32.0,-100.00,WSW,245,7.0,12.0,86,0.00,,,-99.99,,2013-05-06 12:12:00,
2013-05-06 06:21:00,36.0,32.0,-100.00,WSW,240,6.0,12.0,84,0.00,,,-99.99,,2013-05-06 12:21:00,
2013-05-06 06:32:00,36.0,32.0,-100.00,SW,225,4.0,7.0,84,0.00,,,-99.99,,2013-05-06 12:32:00,
2013-05-06 06:41:00,36.0,32.0,-100.00,WSW,240,4.0,9.0,84,0.00,,,-99.99,,2013-05-06 12:41:00,
2013-05-06 06:51:00,36.0,33.0,-100.00,WSW,240,5.0,7.0,85,0.00,,,-99.99,,2013-05-06 12:51:00,
2013-05-06 07:01:00,38.0,33.0,-100.00,WSW,245,2.0,9.0,83,0.00,,,-99.99,,2013-05-06 13:01:00,
2013-05-06 07:11:00,38.0,33.0,-100.00,SSW,210,3.0,9.0,82,0.00,,,-99.99,,2013-05-06 13:11:00,
2013-05-06 07:21:00,39.0,33.0,-100.00,SW,225,7.0,11.0,80,0.00,,,-99.99,,2013-05-06 13:21:00,
2013-05-06 07:32:00,39.0,34.0,-100.00,SW,220,6.0,10.0,79,0.00,,,-99.99,,2013-05-06 13:32:00,
2013-05-06 07:42:00,40.0,34.0,-100.00,SW,220,6.0,11.0,77,0.00,,,-99.99,,2013-05-06 13:42:00,
2013-05-06 07:52:00,42.0,35.0,-100.00,SW,220,6.0,9.0,74,0.00,,,-99.99,,2013-05-06 13:52:00,
2013-05-06 08:01:00,42.0,35.0,-100.00,SW,215,6.0,9.0,73,0.00,,,-99.99,,2013-05-06 14:01:00,
2013-05-06 08:11:00,44.0,35.0,-100.00,SSW,205,6.0,8.0,70,0.00,,,-99.99,,2013-05-06 14:11:00,
2013-05-06 08:21:00,45.0,35.0,-100.00,SE,145,2.0,8.0,68,0.00,,,-99.99,,2013-05-06 14:21:00,
2013-05-06 08:32:00,47.0,36.0,-100.00,ENE,70,2.0,5.0,65,0.00,,,-99.99,,2013-05-06 14:32:00,
2013-05-06 08:42:00,46.0,37.0,-100.00,ENE,60,4.0,6.0,69,0.00,,,-99.99,,2013-05-06 14:42:00,
2013-05-06 08:51:00,48.0,38.0,-100.00,NE,55,4.0,7.0,67,0.00,,,-99.99,,2013-05-06 14:51:00,
2013-05-06 09:01:00,47.0,37.0,-100.00,NE,45,6.0,9.0,69,0.00,,,-99.99,,2013-05-06 15:01:00,
2013-05-06 09:11:00,47.0,38.0,-100.00,NE,50,6.0,9.0,69,0.00,,,-99.99,,2013-05-06 15:11:00,
2013-05-06 09:21:00,48.0,38.0,-100.00,ENE,70,6.0,10.0,67,0.00,,,-99.99,,2013-05-06 15:21:00,
2013-05-06 09:33:00,49.0,38.0,-100.00,East,95,3.0,7.0,64,0.00,,,-99.99,,2013-05-06 15:33:00,
2013-05-06 09:42:00,50.0,38.0,-100.00,East,85,1.0,8.0,63,0.00,,,-99.99,,2013-05-06 15:42:00,
2013-05-06 09:53:00,50.0,38.0,-100.00,NE,50,4.0,10.0,62,0.00,,,-99.99,,2013-05-06 15:53:00,
2013-05-06 10:03:00,51.0,38.0,-100.00,ESE,105,2.0,8.0,60,0.00,,,-99.99,,2013-05-06 16:03:00,
2013-05-06 10:13:00,51.0,38.0,-100.00,ENE,70,6.0,9.0,59,0.00,,,-99.99,,2013-05-06 16:13:00,
2013-05-06 10:23:00,51.0,37.0,-100.00,East,95,7.0,9.0,58,0.00,,,-99.99,,2013-05-06 16:23:00,
2013-05-06 10:32:00,51.0,36.0,-100.00,East,90,7.0,10.0,58,0.00,,,-99.99,,2013-05-06 16:32:00,
2013-05-06 10:41:00,51.0,36.0,-100.00,ENE,75,5.0,10.0,57,0.00,,,-99.99,,2013-05-06 16:41:00,
2013-05-06 10:52:00,52.0,36.0,-100.00,ESE,110,5.0,9.0,53,0.00,,,-99.99,,2013-05-06 16:52:00,
2013-05-06 11:03:00,53.0,36.0,-100.00,ENE,65,5.0,9.0,52,0.00,,,-99.99,,2013-05-06 17:03:00,
2013-05-06 11:12:00,53.0,35.0,-100.00,East,90,7.0,10.0,51,0.00,,,-99.99,,2013-05-06 17:12:00,
2013-05-06 11:23:00,54.0,36.0,-100.00,East,80,6.0,13.0,50,0.00,,,-99.99,,2013-05-06 17:23:00,
2013-05-06 11:31:00,54.0,36.0,-100.00,NE,50,9.0,12.0,49,0.00,,,-99.99,,2013-05-06 17:31:00,
2013-05-06 11:42:00,56.0,36.0,-100.00,East,100,6.0,9.0,47,0.00,,,-99.99,,2013-05-06 17:42:00,
2013-05-06 11:52:00,54.0,35.0,-100.00,East,95,4.0,13.0,48,0.00,,,-99.99,,2013-05-06 17:52:00,
2013-05-06 12:01:00,57.0,36.0,-100.00,SE,135,4.0,7.0,45,0.00,,,-99.99,,2013-05-06 18:01:00,
2013-05-06 12:12:00,55.0,35.0,-100.00,East,80,7.0,11.0,46,0.00,,,-99.99,,2013-05-06 18:12:00,
2013-05-06 12:21:00,57.0,35.0,-100.00,North,355,2.0,7.0,44,0.00,,,-99.99,,2013-05-06 18:21:00,
2013-05-06 12:31:00,56.0,35.0,-100.00,NNW,340,1.0,4.0,44,0.00,,,-99.99,,2013-05-06 18:31:00,
2013-05-06 12:43:00,56.0,35.0,-100.00,East,80,2.0,9.0,44,0.00,,,-99.99,,2013-05-06 18:43:00,
2013-05-06 12:52:00,55.0,35.0,-100.00,SE,125,7.0,13.0,46,0.00,,,-99.99,,2013-05-06 18:52:00,
2013-05-06 13:01:00,55.0,35.0,-100.00,South,175,6.0,14.0,47,0.00,,,-99.99,,2013-05-06 19:01:00,
2013-05-06 13:11:00,54.0,35.0,-100.00,ESE,105,6.0,14.0,47,0.00,,,-99.99,,2013-05-06 19:11:00,
2013-05-06 13:22:00,53.0,35.0,-100.00,SE,135,6.0,11.0,49,0.00,,,-99.99,,2013-05-06 19:22:00,
2013-05-06 13:32:00,52.0,35.0,-100.00,SSW,200,11.0,15.0,51,0.00,,,-99.99,,2013-05-06 19:32:00,
2013-05-06 13:41:00,52.0,35.0,-100.00,SSW,200,12.0,16.0,52,0.00,,,-99.99,,2013-05-06 19:41:00,
2013-05-06 13:52:00,54.0,35.0,-100.00,South,170,9.0,16.0,49,0.00,,,-99.99,,2013-05-06 19:52:00,
2013-05-06 14:02:00,56.0,35.0,-100.00,South,170,7.0,14.0,46,0.00,,,-99.99,,2013-05-06 20:02:00,
2013-05-06 14:11:00,55.0,34.0,-100.00,SSW,195,4.0,13.0,44,0.00,,,-99.99,,2013-05-06 20:11:00,
2013-05-06 14:21:00,54.0,33.0,-100.00,South,190,4.0,11.0,44,0.00,,,-99.99,,2013-05-06 20:21:00,
2013-05-06 14:32:00,56.0,34.0,-100.00,SE,140,2.0,7.0,43,0.00,,,-99.99,,2013-05-06 20:32:00,
2013-05-06 14:42:00,57.0,34.0,-100.00,SSE,160,5.0,9.0,41,0.00,,,-99.99,,2013-05-06 20:42:00,
2013-05-06 14:52:00,57.0,33.0,-100.00,SSW,200,1.0,11.0,41,0.00,,,-99.99,,2013-05-06 20:52:00,
2013-05-06 15:01:00,57.0,33.0,-100.00,South,180,7.0,12.0,40,0.00,,,-99.99,,2013-05-06 21:01:00,
2013-05-06 15:11:00,56.0,33.0,-100.00,SSE,165,9.0,13.0,40,0.00,,,-99.99,,2013-05-06 21:11:00,
2013-05-06 15:21:00,58.0,33.0,-100.00,SSW,200,7.0,11.0,39,0.00,,,-99.99,,2013-05-06 21:21:00,
2013-05-06 15:32:00,56.0,32.0,-100.00,SE,130,5.0,12.0,39,0.00,,,-99.99,,2013-05-06 21:32:00,
2013-05-06 15:42:00,57.0,33.0,-100.00,ENE,65,9.0,15.0,39,0.00,,,-99.99,,2013-05-06 21:42:00,
2013-05-06 15:53:00,55.0,32.0,-100.00,ENE,70,11.0,14.0,40,0.00,,,-99.99,,2013-05-06 21:53:00,
2013-05-06 16:03:00,55.0,32.0,-100.00,East,85,14.0,22.0,41,0.00,,,-99.99,,2013-05-06 22:03:00,
2013-05-06 16:12:00,55.0,33.0,-100.00,East,80,10.0,22.0,42,0.00,,,-99.99,,2013-05-06 22:12:00,
2013-05-06 16:22:00,52.0,34.0,-100.00,ESE,110,15.0,27.0,49,0.00,,,-99.99,,2013-05-06 22:22:00,
2013-05-06 16:33:00,54.0,37.0,-100.00,East,95,16.0,22.0,52,0.00,,,-99.99,,2013-05-06 22:33:00,
2013-05-06 16:45:00,53.0,37.0,-100.00,ESE,110,13.0,24.0,55,0.00,,,-99.99,,2013-05-06 22:45:00,
2013-05-06 16:52:00,53.0,37.0,-100.00,East,90,14.0,22.0,55,0.00,,,-99.99,,2013-05-06 22:52:00,
2013-05-06 17:02:00,52.0,37.0,-100.00,ESE,110,10.0,23.0,55,0.00,,,-99.99,,2013-05-06 23:02:00,
2013-05-06 17:12:00,53.0,37.0,-100.00,ESE,110,9.0,17.0,55,0.00,,,-99.99,,2013-05-06 23:12:00,
2013-05-06 17:22:00,53.0,37.0,-100.00,East,95,10.0,14.0,54,0.00,,,-99.99,,2013-05-06 23:22:00,
2013-05-06 17:31:00,53.0,36.0,-100.00,ESE,115,9.0,16.0,52,0.00,,,-99.99,,2013-05-06 23:31:00,
2013-05-06 17:41:00,53.0,36.0,-100.00,SSE,155,9.0,14.0,51,0.00,,,-99.99,,2013-05-06 23:41:00,
2013-05-06 17:52:00,53.0,36.0,-100.00,ESE,120,8.0,12.0,51,0.00,,,-99.99,,2013-05-06 23:52:00,
2013-05-06 18:01:00,53.0,35.0,-100.00,SE,140,7.0,11.0,50,0.00,,,-99.99,,2013-05-07 00:01:00,
2013-05-06 18:11:00,53.0,35.0,-100.00,ESE,110,7.0,11.0,51,0.00,,,-99.99,,2013-05-07 00:11:00,
2013-05-06 18:21:00,54.0,35.0,-100.00,SE,135,6.0,12.0,49,0.00,,,-99.99,,2013-05-07 00:21:00,
2013-05-06 18:31:00,53.0,34.0,-100.00,SE,135,7.0,11.0,47,0.00,,,-99.99,,2013-05-07 00:31:00,
2013-05-06 18:41:00,54.0,34.0,-100.00,SE,140,6.0,10.0,47,0.00,,,-99.99,,2013-05-07 00:41:00,
2013-05-06 18:51:00,54.0,34.0,-100.00,ESE,120,6.0,11.0,46,0.00,,,-99.99,,2013-05-07 00:51:00,
2013-05-06 19:01:00,53.0,34.0,-100.00,SE,145,7.0,11.0,48,0.00,,,-99.99,,2013-05-07 01:01:00,
2013-05-06 19:11:00,53.0,34.0,-100.00,ESE,120,6.0,11.0,48,0.00,,,-99.99,,2013-05-07 01:11:00,
2013-05-06 19:21:00,52.0,34.0,-100.00,ESE,120,4.0,10.0,49,0.00,,,-99.99,,2013-05-07 01:21:00,
2013-05-06 19:32:00,52.0,34.0,-100.00,ESE,120,5.0,7.0,50,0.00,,,-99.99,,2013-05-07 01:32:00,
2013-05-06 19:42:00,51.0,34.0,-100.00,ESE,110,4.0,7.0,50,0.00,,,-99.99,,2013-05-07 01:42:00,
2013-05-06 19:52:00,51.0,34.0,-100.00,East,85,6.0,9.0,51,0.00,,,-99.99,,2013-05-07 01:52:00,
2013-05-06 20:02:00,50.0,34.0,-100.00,East,95,6.0,9.0,53,0.00,,,-99.99,,2013-05-07 02:02:00,
2013-05-06 20:11:00,50.0,34.0,-100.00,East,100,4.0,9.0,54,0.00,,,-99.99,,2013-05-07 02:11:00,
2013-05-06 20:21:00,49.0,34.0,-100.00,East,95,4.0,7.0,57,0.00,,,-99.99,,2013-05-07 02:21:00,
2013-05-06 20:31:00,49.0,34.0,-100.00,SE,125,4.0,9.0,56,0.00,,,-99.99,,2013-05-07 02:31:00,
2013-05-06 20:41:00,49.0,33.0,-100.00,South,170,2.0,7.0,54,0.00,,,-99.99,,2013-05-07 02:41:00,
2013-05-06 20:51:00,48.0,32.0,-100.00,South,170,5.0,9.0,53,0.00,,,-99.99,,2013-05-07 02:51:00,
2013-05-06 21:01:00,48.0,32.0,-100.00,South,180,6.0,9.0,53,0.00,,,-99.99,,2013-05-07 03:01:00,
2013-05-06 21:11:00,48.0,32.0,-100.00,South,185,4.0,11.0,54,0.00,,,-99.99,,2013-05-07 03:11:00,
2013-05-06 21:21:00,47.0,32.0,-100.00,South,170,6.0,11.0,54,0.00,,,-99.99,,2013-05-07 03:21:00,
2013-05-06 21:32:00,47.0,31.0,-100.00,South,190,5.0,13.0,55,0.00,,,-99.99,,2013-05-07 03:32:00,
2013-05-06 21:42:00,47.0,32.0,-100.00,South,185,7.0,13.0,55,0.00,,,-99.99,,2013-05-07 03:42:00,
2013-05-06 21:53:00,47.0,31.0,-100.00,SSW,195,4.0,10.0,55,0.00,,,-99.99,,2013-05-07 03:53:00,
2013-05-06 22:02:00,46.0,31.0,-100.00,South,185,6.0,8.0,54,0.00,,,-99.99,,2013-05-07 04:02:00,
2013-05-06 22:12:00,47.0,31.0,-100.00,South,185,4.0,8.0,54,0.00,,,-99.99,,2013-05-07 04:12:00,
2013-05-06 22:23:00,46.0,31.0,-100.00,South,185,2.0,6.0,54,0.00,,,-99.99,,2013-05-07 04:23:00,
2013-05-06 22:33:00,46.0,31.0,-100.00,South,180,4.0,6.0,55,0.00,,,-99.99,,2013-05-07 04:33:00,
2013-05-06 22:42:00,47.0,32.0,-100.00,South,175,4.0,7.0,55,0.00,,,-99.99,,2013-05-07 04:42:00,
2013-05-06 22:52:00,43.0,30.0,-100.00,NE,35,9.0,12.0,60,0.00,,,-99.99,,2013-05-07 04:52:00,
2013-05-06 23:02:00,43.0,31.0,-100.00,East,85,7.0,12.0,62,0.00,,,-99.99,,2013-05-07 05:02:00,
2013-05-06 23:12:00,43.0,31.0,-100.00,East,80,3.0,9.0,62,0.00,,,-99.99,,2013-05-07 05:12:00,
2013-05-06 23:22:00,44.0,32.0,-100.00,ESE,105,1.0,6.0,63,0.00,,,-99.99,,2013-05-07 05:22:00,
2013-05-06 23:32:00,44.0,32.0,-100.00,East,80,1.0,4.0,62,0.00,,,-99.99,,2013-05-07 05:32:00,
2013-05-06 23:42:00,44.0,32.0,-100.00,ENE,75,2.0,4.0,62,0.00,,,-99.99,,2013-05-07 05:42:00,
2013-05-06 23:51:00,42.0,31.0,-100.00,SW,235,1.0,3.0,64,0.00,,,-99.99,,2013-05-07 05:51:00,